Location: Monrovia
(34.7865°N, 86.7139°W)
Time: 21:37:11
(UTC+00:00)

Cosmos 1656 - Pass Details

Date: 14 July 2020
Orbit: 800 x 848 km, 71.1° (Epoch: 08 August)

Event Time Altitude Azimuth Distance (km) Brightness Sun altitude
Rises 07:33:53 0° 340° (NNW) 3,312 7.4 -28.7°
Reaches altitude 10° 07:36:18 10° 342° (NNW) 2,380 6.6 -28.5°
Maximum altitude 07:41:44 78° 69° (ENE) 825 3.6 -28.0°
Enters shadow 07:41:52 77° 87° (E) 827 3.6 -28.0°
